Location: Tamazert
(32.6352°N, 5.2072°W)
Time: 11:48:51
(UTC+00:00)

Tiros 1 despin weight - Pass Details

Date: 12 October 2022
Orbit: 590 x 637 km, 48.2° (Epoch: 25 November)

Event Time Altitude Azimuth Distance (km) Brightness Sun altitude
Rises 10:40:06 0° 199° (SSW) 2,800 ? 44.8°
Reaches altitude 10° 10:42:42 10° 185° (S) 1,903 ? 45.1°
Maximum altitude 10:46:11 24° 132° (SE) 1,242 ? 45.5°
Drops below altitude 10° 10:49:42 10° 78° (ENE) 1,916 ? 45.8°
Sets 10:52:19 0° 64° (ENE) 2,825 ? 46.1°
